Theta_e
324 325 326 328 328 326 325 326 328 329 330 331 332 333 333 333 332 330 330 330 325 327 328 326 326 326 326 326 324 324 326 325 326 326 326 327 327 327 327 327 327 327 328 328 328 328 327 327 327 327 326 326 326 326 325 325 326 326 327 326 326 327 326 326 327 327 326 326 326 325 324 324 323 322 322 322 322 322 322 322 321 320 318 316 316 320
324 326 327 327 327 325 324 324 325 327 329 331 333 333 333 334 334 331 331 331 326 327 330 328 328 328 328 328 326 324 326 326 325 325 326 326 327 327 327 327 327 327 327 327 327 327 327 327 327 327 327 326 326 326 326 326 326 326 326 326 326 326 326 327 326 326 327 326 326 326 325 324 323 323 323 323 324 323 324 324 323 322 321 319 316 317
324 325 326 325 325 325 325 324 324 326 327 330 331 330 331 332 332 333 332 331 327 327 331 331 329 329 328 329 327 324 325 326 326 326 326 327 327 327 327 327 327 327 327 327 327 327 327 327 327 327 327 327 327 327 327 327 327 327 327 326 326 326 326 326 326 326 326 326 326 326 325 324 323 322 322 324 324 324 324 324 324 324 322 321 319 316
326 325 325 325 325 326 326 325 325 326 327 329 330 330 330 329 331 335 335 332 328 326 327 328 328 328 327 328 326 323 323 325 325 326 326 327 327 327 327 327 327 327 327 327 327 327 327 327 327 327 327 327 327 326 327 327 327 327 327 326 326 326 325 325 325 325 326 326 326 326 326 325 323 323 323 324 324 324 324 324 324 324 324 322 321 318
325 324 323 325 326 326 327 327 327 327 328 328 329 330 329 328 330 335 335 332 330 328 326 326 328 327 327 327 326 324 323 323 323 324 324 325 326 327 327 327 327 327 327 327 327 327 327 327 327 327 327 327 327 327 327 326 327 326 326 326 326 325 325 324 324 324 325 326 327 326 326 326 325 324 324 325 325 324 324 324 325 325 324 323 322 320
324 322 323 325 326 326 328 329 329 328 329 329 329 329 328 329 331 331 331 330 331 331 329 326 328 331 329 328 327 325 324 323 322 321 322 324 324 325 325 325 326 326 326 326 326 326 326 326 326 326 326 326 327 327 327 327 327 327 327 326 326 325 325 324 324 324 325 326 327 327 326 326 325 325 325 325 325 324 324 325 325 325 325 324 323 322
322 321 323 325 325 326 327 328 328 328 330 331 329 328 327 328 329 329 329 331 331 332 329 325 327 331 330 328 327 326 324 324 323 320 320 322 323 323 323 324 324 324 324 325 324 325 325 325 325 325 325 325 326 326 326 327 327 326 325 325 325 325 324 324 323 324 325 326 326 327 326 326 325 325 324 324 325 324 325 325 325 326 325 325 324 323
322 322 323 324 324 326 327 328 328 328 331 330 326 325 327 327 328 329 330 331 331 330 329 325 325 328 329 329 327 325 325 324 323 321 320 320 321 322 322 322 323 324 324 324 324 325 325 325 324 324 324 325 325 325 325 325 324 323 321 321 322 323 323 322 322 323 323 324 325 325 326 326 325 325 325 325 325 325 325 325 325 325 325 325 324 323
321 321 322 322 323 324 325 327 328 328 329 326 322 323 325 325 327 329 328 329 329 327 328 327 324 327 329 329 326 323 324 324 323 323 321 319 320 320 320 321 323 324 324 324 325 325 324 324 323 324 325 325 324 323 323 322 321 320 319 319 320 321 321 321 321 322 322 323 323 324 325 325 325 325 325 325 326 326 325 325 325 325 325 325 324 323
320 320 320 321 322 323 324 325 327 327 327 323 322 323 323 322 324 327 328 328 328 328 329 328 326 328 329 328 325 323 323 324 324 323 320 318 320 321 321 321 323 325 325 324 325 324 324 324 324 325 325 324 322 321 321 320 320 319 319 319 319 320 320 320 320 320 321 322 323 323 324 324 325 326 326 326 326 326 326 326 326 325 325 325 324 323
320 319 318 319 321 321 321 322 323 324 323 321 322 323 322 322 323 326 328 328 329 329 328 327 326 327 328 328 326 325 326 325 323 323 321 319 320 322 321 322 323 325 324 324 324 323 324 324 324 323 322 321 321 320 320 319 318 318 318 319 319 319 319 320 320 320 320 321 322 323 324 324 324 325 326 326 326 326 326 326 325 325 325 325 324 324
320 320 319 319 319 319 321 321 321 321 321 321 322 321 321 323 324 324 326 327 329 330 329 327 326 326 327 328 327 328 328 325 323 324 324 321 320 322 322 322 323 324 324 323 324 324 324 323 320 319 319 319 319 318 317 316 316 316 316 317 317 317 317 318 318 318 318 319 320 321 323 324 324 324 325 325 325 325 325 325 325 325 326 325 325 325
321 320 320 320 318 319 321 322 322 321 321 322 321 319 320 324 325 325 326 326 327 329 328 326 326 326 326 325 324 326 325 323 322 322 323 320 320 322 322 322 322 323 322 322 323 323 322 320 319 318 318 318 317 316 316 316 316 316 315 316 316 316 315 315 316 316 316 317 318 319 320 322 322 323 324 324 324 324 324 324 324 325 325 325 325 325
323 321 320 320 319 319 320 321 323 322 322 321 320 319 320 323 324 325 327 326 326 328 327 326 326 327 327 325 324 323 322 322 321 320 321 320 321 322 322 321 322 322 322 322 322 322 321 319 318 318 318 317 317 317 317 316 317 317 316 316 316 316 315 315 315 315 315 315 315 316 317 319 321 322 322 322 323 323 323 324 324 324 324 324 324 323
324 323 321 321 321 320 319 320 322 322 321 321 320 320 320 323 324 324 326 327 327 329 328 326 327 329 331 330 325 322 320 320 319 320 320 320 322 323 321 321 322 322 322 323 322 322 320 319 318 318 317 318 318 318 317 315 315 317 317 317 317 317 317 317 316 315 315 315 315 315 316 317 319 320 321 321 321 322 322 323 323 323 324 323 323 322
323 324 323 320 320 320 319 319 319 321 321 320 321 320 320 323 325 324 324 326 327 328 328 326 329 331 331 328 322 319 319 318 317 318 319 321 321 321 321 322 322 323 322 322 322 321 320 318 318 317 316 316 316 317 318 315 312 314 317 318 317 318 318 318 318 317 317 316 315 315 315 316 317 318 319 319 319 320 321 322 323 323 323 323 323 322
321 323 322 320 320 319 319 319 318 320 322 320 320 321 320 323 326 324 322 323 324 325 326 327 328 327 325 323 321 319 319 318 318 319 319 320 321 321 322 322 322 323 322 322 322 320 319 318 317 317 315 314 314 315 318 317 313 311 313 316 317 317 316 316 317 317 317 317 317 317 315 315 315 316 317 317 317 318 320 322 322 322 322 322 322 322
322 323 322 320 321 319 317 318 318 317 320 321 320 320 320 322 324 324 323 323 323 323 324 325 324 322 322 324 324 323 320 319 324 325 320 319 320 321 322 322 322 322 322 321 320 319 318 318 317 317 316 315 314 312 315 317 316 314 313 313 314 315 315 314 315 315 315 315 317 318 318 317 316 315 315 315 316 317 318 320 321 321 322 322 321 321
321 322 321 319 321 320 317 318 319 318 318 319 320 319 321 323 322 322 322 323 323 322 323 325 324 322 322 321 321 322 323 324 327 327 324 320 320 321 322 322 321 321 322 321 319 318 318 318 318 318 316 315 312 310 311 315 317 317 316 314 313 314 314 315 315 314 313 313 313 315 317 318 318 317 315 314 314 315 316 317 317 319 320 321 321 321
321 322 322 319 319 319 319 319 321 320 319 319 319 319 321 324 323 322 321 322 323 322 322 324 325 325 323 318 317 319 321 324 323 323 324 321 318 320 322 321 320 321 321 320 318 318 317 317 318 317 315 314 313 309 308 311 315 317 318 317 316 314 313 314 315 314 313 313 312 311 313 316 318 318 317 316 314 314 315 315 316 317 318 319 320 321
320 320 321 320 319 320 320 319 319 320 320 320 320 320 320 322 323 323 321 323 324 322 322 322 322 327 326 319 318 318 318 320 321 321 321 318 317 319 320 320 321 321 321 318 317 318 317 317 317 317 316 316 315 311 308 309 312 315 317 318 317 315 313 313 313 313 312 312 312 311 310 312 315 317 318 318 316 315 315 315 316 317 317 318 319 319
321 321 320 320 320 321 320 319 318 319 319 319 320 319 319 320 321 323 322 323 324 323 325 323 320 325 327 320 317 319 318 318 318 319 318 316 316 318 318 318 319 320 319 318 318 317 318 317 317 317 317 316 315 312 309 308 309 312 315 317 317 315 313 312 311 311 311 310 311 311 311 310 311 314 317 318 318 316 314 314 315 316 316 316 317 317
321 323 321 320 320 320 319 318 318 318 318 319 319 318 319 319 320 321 321 322 323 322 324 325 322 323 324 322 319 318 317 316 316 316 316 315 316 317 317 318 318 319 319 318 318 318 318 317 317 317 317 315 314 311 309 309 309 309 312 314 314 312 311 311 311 311 310 309 309 310 311 310 310 312 315 317 318 318 316 313 312 313 313 314 314 314
319 322 321 320 320 319 318 318 318 317 318 319 319 318 318 319 319 320 322 322 322 322 322 323 323 323 322 322 318 315 315 315 315 316 315 315 316 317 317 318 318 319 318 318 318 318 317 318 317 317 316 314 313 311 310 309 309 309 311 312 312 311 311 312 312 311 310 309 309 309 310 310 310 310 313 316 318 318 318 315 312 312 312 312 312 312
318 320 320 320 321 320 319 319 317 317 318 318 318 318 318 318 318 320 322 322 321 321 321 322 322 321 321 321 318 316 317 317 315 316 316 316 316 317 317 318 318 318 318 318 318 318 317 317 316 315 314 313 313 311 310 310 310 311 312 312 312 313 314 314 314 313 311 310 310 310 310 310 310 311 312 314 316 318 318 317 315 313 312 312 312 312
318 320 320 320 322 321 321 322 320 319 319 318 318 318 317 318 318 319 320 321 320 319 319 321 321 320 319 320 319 318 318 318 317 315 315 316 316 317 317 317 317 317 317 317 317 316 316 315 314 313 312 313 313 312 311 311 310 311 312 312 313 314 315 314 314 313 311 311 311 311 311 311 312 313 313 314 316 317 318 318 318 317 316 314 313 313
317 320 319 319 321 321 321 322 321 320 319 318 318 317 317 317 317 318 320 320 319 319 319 319 320 319 318 318 318 318 318 319 318 315 314 315 316 317 317 316 316 315 315 314 314 313 314 313 312 312 313 313 312 311 312 311 311 311 312 313 313 313 313 313 312 311 311 311 312 312 313 314 315 315 315 316 317 317 317 317 318 318 318 317 316 314
316 317 317 318 319 320 321 322 320 319 318 318 318 317 317 317 317 318 319 319 318 319 319 318 319 320 319 317 316 317 319 320 317 314 314 315 315 316 316 315 314 314 313 312 312 312 312 312 313 312 312 311 311 311 312 311 311 311 313 313 313 312 312 311 311 311 312 312 312 314 315 315 315 315 316 316 317 317 317 317 318 318 318 318 318 316
316 316 316 316 315 317 319 320 319 318 318 317 318 317 317 317 317 318 318 318 318 318 318 317 318 319 318 317 316 316 316 316 315 314 315 315 315 315 315 314 313 312 312 312 313 313 313 313 312 312 311 310 310 311 311 311 311 312 313 313 313 312 311 311 312 312 312 312 314 315 315 314 313 314 315 316 316 316 317 317 317 317 317 318 318 317
317 318 316 315 315 315 317 318 317 317 317 317 317 317 317 316 317 317 317 317 318 318 316 316 317 318 317 316 316 314 313 314 314 315 315 314 314 314 314 313 313 312 313 313 312 312 312 311 311 311 311 310 310 309 310 311 313 313 313 313 313 312 312 312 313 313 313 314 315 315 314 312 312 312 313 314 315 315 316 316 317 317 317 317 318 318
315 317 316 316 316 315 316 315 315 316 316 316 317 317 317 317 316 317 317 317 317 318 317 316 317 317 315 314 314 314 313 314 314 314 314 314 314 313 312 312 312 312 311 311 310 310 310 310 310 310 310 309 309 310 311 312 314 314 314 313 313 312 312 312 313 314 314 315 315 314 313 312 312 312 312 313 314 314 314 315 316 317 317 317 317 317
314 314 314 315 315 315 315 315 314 315 315 316 317 316 316 317 317 317 317 317 317 317 317 317 317 317 315 314 314 314 314 314 313 313 313 313 312 311 311 310 310 310 309 308 308 308 309 309 309 309 309 310 311 312 312 313 314 313 313 313 312 313 313 313 314 315 314 314 313 312 312 312 312 312 312 312 312 313 313 313 314 315 316 317 317 317
313 313 312 314 315 315 315 315 314 315 316 316 316 315 316 317 317 317 317 316 316 316 317 317 317 316 315 316 317 316 315 314 313 311 311 311 310 309 309 309 309 308 308 308 308 308 308 309 309 310 311 312 313 313 313 313 313 312 312 312 312 313 314 314 314 313 312 312 311 311 311 311 312 312 312 312 312 312 312 312 312 313 314 314 315 316
313 314 313 313 314 314 313 314 314 315 317 317 316 314 315 316 317 317 317 317 316 316 316 316 315 314 315 317 317 316 315 314 312 310 309 309 309 309 309 309 309 308 308 308 308 308 309 310 311 312 312 313 313 313 313 312 312 312 312 312 313 313 313 313 312 311 311 311 310 310 310 311 311 312 312 312 312 312 312 312 312 312 312 313 313 314
311 313 312 312 313 312 312 313 314 315 316 316 315 314 313 314 315 316 316 315 315 315 316 315 314 314 314 313 314 314 313 312 311 310 310 309 309 309 309 309 309 309 309 309 309 310 310 310 311 311 311 311 311 311 311 311 311 312 312 312 312 312 311 311 310 310 310 310 310 310 310 310 311 311 311 312 312 312 312 312 312 312 311 312 312 312
311 312 312 312 311 311 312 313 314 314 312 312 313 313 312 313 313 313 314 314 313 313 315 315 314 313 310 308 309 311 310 310 310 309 309 309 309 309 310 309 309 309 309 309 310 310 309 309 309 309 309 309 310 310 310 310 310 310 310 310 310 310 310 310 310 310 310 310 310 310 310 310 310 310 310 311 311 311 312 312 312 311 311 311 311 311
311 311 312 312 311 311 312 312 312 311 310 309 311 311 311 312 313 314 314 314 313 311 312 312 312 311 309 307 308 309 309 309 310 309 308 309 310 310 310 309 309 309 309 310 310 310 309 307 307 307 306 306 306 307 307 307 307 307 307 307 307 308 309 309 309 310 310 310 310 309 309 309 310 310 310 310 310 310 310 310 311 310 310 311 311 311
310 311 312 312 312 312 313 312 311 311 310 309 311 311 308 309 312 313 313 314 313 310 308 309 310 311 310 308 308 308 308 310 310 309 308 309 310 310 310 309 309 309 309 310 310 309 308 308 308 307 306 306 306 306 306 305 305 305 305 305 306 306 307 307 308 309 309 309 309 309 308 308 308 308 309 309 309 309 308 309 309 309 309 310 310 310
310 311 311 312 312 312 312 311 310 311 310 310 312 312 308 307 309 310 311 313 311 307 307 308 309 309 308 308 308 307 308 311 310 307 308 309 308 308 309 308 308 309 309 309 309 309 308 308 308 308 308 308 308 307 307 306 305 304 304 304 304 304 305 305 306 306 307 307 308 308 308 308 307 307 307 308 307 307 306 306 307 307 308 308 309 309
311 311 311 310 311 310 310 310 310 309 309 311 313 310 306 307 308 309 312 312 308 306 306 308 308 308 307 307 307 307 309 310 308 306 307 307 306 306 307 307 307 307 307 307 308 308 308 308 308 308 308 308 308 307 307 306 305 304 303 302 302 302 302 302 303 303 304 305 306 307 307 307 307 307 307 307 306 306 305 305 305 305 305 306 307 308
311 312 311 310 310 310 309 310 310 309 311 313 311 305 304 307 308 309 311 311 307 305 306 307 307 308 307 306 305 306 307 307 306 306 306 305 303 303 303 303 304 306 306 306 306 306 306 306 306 306 306 306 306 306 305 305 304 302 301 300 300 300 300 300 300 300 301 302 303 304 306 306 307 307 307 307 306 306 306 305 305 305 305 305 304 305
312 311 311 310 310 309 309 309 309 309 309 309 307 304 304 308 310 308 308 308 307 307 307 306 306 307 307 306 305 305 305 305 306 305 304 303 302 300 299 300 301 302 304 304 304 303 302 301 301 301 301 300 300 300 301 301 300 299 298 298 298 298 298 298 299 299 299 299 299 300 302 303 304 305 306 306 305 305 304 304 304 304 304 303 303 303
311 311 311 310 309 309 308 307 308 309 307 305 306 305 306 309 310 307 306 307 308 309 308 307 307 307 307 307 307 307 305 305 304 303 301 300 299 298 298 298 299 299 300 300 299 298 297 296 296 296 296 296 296 296 297 297 297 297 296 296 296 296 297 297 298 298 297 297 297 297 298 298 300 301 301 302 302 301 301 301 301 301 301 301 301 301
310 310 311 310 309 309 309 307 308 309 306 304 306 307 306 307 307 307 307 307 308 309 309 308 308 308 308 307 307 306 305 303 302 301 300 298 297 297 296 296 296 296 296 296 295 295 295 295 295 295 295 295 295 295 295 296 296 296 296 295 295 295 295 296 296 296 296 296 296 296 296 296 297 297 297 298 298 298 298 298 298 298 299 299 299 299
308 308 308 309 310 308 307 307 307 306 304 304 306 306 305 306 307 307 308 308 307 308 308 307 307 307 307 307 306 305 303 302 301 301 300 298 297 295 295 294 295 295 295 294 294 294 294 294 294 294 294 294 294 294 294 294 295 295 295 295 295 295 295 295 295 295 295 295 295 295 295 296 296 296 296 296 297 297 297 297 298 298 298 298 298 299
306 304 303 308 310 307 305 305 304 304 304 305 307 306 305 307 308 307 307 307 307 307 307 306 306 306 306 306 305 304 303 302 302 301 300 299 298 295 294 294 294 294 294 294 294 294 294 294 294 294 294 294 294 294 293 294 294 294 294 294 294 294 294 294 295 295 295 295 295 295 296 296 296 296 296 296 296 296 297 297 297 297 298 298 298 298
305 302 303 306 308 307 307 306 305 304 305 306 307 306 305 306 307 306 307 307 307 307 306 306 306 305 304 303 303 302 301 301 301 300 299 298 297 296 294 294 293 293 293 293 293 293 293 293 294 294 294 294 293 293 293 294 294 294 294 294 294 294 295 295 295 295 295 295 295 295 296 296 296 296 296 296 296 296 297 297 297 297 297 297 297 298
304 303 306 308 307 306 306 305 303 303 304 305 307 307 306 306 306 306 306 307 307 307 306 305 304 303 302 301 300 299 298 298 297 297 296 295 295 294 294 293 293 293 293 293 293 293 293 293 293 293 293 294 294 294 294 294 294 294 294 294 295 295 295 295 295 295 295 295 295 295 295 296 296 296 296 297 297 297 297 297 297 297 297 297 297 297
304 304 307 308 307 306 305 304 302 303 304 305 306 306 306 306 307 307 307 307 306 306 304 303 302 301 300 298 297 296 295 295 294 294 294 294 293 293 293 293 293 293 293 293 293 293 293 293 293 293 294 294 294 294 294 294 294 294 294 294 294 294 295 295 295 295 295 295 295 295 295 295 295 295 296 296 296 296 296 296 296 297 297 297 297 296
304 305 306 306 307 307 306 305 304 305 307 306 304 305 306 307 307 307 306 305 304 303 302 301 299 297 296 295 294 293 293 293 293 293 293 293 293 293 293 293 293 293 293 292 292 292 292 293 293 293 293 293 293 294 294 294 293 293 293 293 294 294 294 294 294 294 294 294 294 294 294 294 295 295 295 295 295 296 296 296 296 296 296 297 296 296
304 305 305 306 307 306 304 304 304 305 306 304 303 304 305 305 305 305 303 302 300 298 297 297 295 294 293 293 293 293 292 292 292 292 292 292 292 292 292 292 292 292 292 292 292 292 292 292 292 292 292 292 293 293 293 293 293 293 293 293 293 293 293 293 293 293 293 293 294 294 293 294 294 294 294 294 294 294 295 296 296 296 296 296 296 296
Wind_Speed
16 6 3 6 6 7 7 8 10 7 5 6 5 6 7 7 6 4 4 5 7 8 8 10 11 9 10 11 12 19 21 18 18 18 20 22 22 23 23 24 24 24 26 25 25 26 26 28 29 29 28 26 26 26 27 27 27 26 25 27 28 28 29 30 31 32 32 33 33 34 35 35 35 35 34 33 33 32 30 30 32 33 32 30 29 30
13 7 10 13 9 8 7 8 8 9 10 6 4 5 5 5 5 4 4 4 2 5 6 7 11 11 9 9 12 16 13 12 17 19 20 23 25 26 25 26 27 27 27 27 27 28 28 30 30 29 29 27 27 28 28 29 29 29 28 29 29 29 31 32 33 33 34 34 34 34 35 34 34 34 34 33 32 31 30 31 34 34 34 32 31 31
7 11 17 17 13 10 8 9 9 10 11 7 5 3 2 3 2 4 4 3 2 4 4 3 6 9 9 9 11 12 10 12 18 18 19 22 24 25 25 25 27 27 27 27 28 28 29 29 29 28 28 28 28 28 29 30 30 30 30 31 31 31 31 33 34 35 35 34 34 34 34 34 34 35 35 34 32 32 32 33 34 35 35 34 33 32
6 11 14 14 14 13 9 10 10 9 9 8 6 5 4 3 0 3 4 4 3 3 4 4 5 6 5 6 8 11 13 13 16 18 20 22 22 24 26 26 26 27 28 27 28 28 28 29 28 28 28 29 29 29 29 30 30 30 31 31 31 31 31 32 33 34 35 34 34 34 34 34 35 36 36 36 35 35 36 37 36 36 36 36 35 33
7 5 13 14 12 15 12 10 10 8 7 9 9 9 8 6 4 3 1 3 4 5 5 5 6 6 5 6 7 11 12 12 16 20 20 23 25 26 28 29 29 30 30 29 29 30 29 29 29 28 29 30 29 30 29 29 29 29 29 29 30 31 31 31 32 33 34 35 36 36 35 35 36 38 39 39 40 40 40 39 37 36 37 37 36 35
7 6 17 14 9 14 13 9 12 9 7 8 10 12 10 7 6 3 3 3 3 3 3 2 4 5 4 7 8 8 7 8 12 15 18 25 28 28 29 31 33 33 33 33 33 34 32 30 30 30 31 31 31 31 29 28 27 27 28 28 29 30 31 31 32 32 33 35 36 37 37 38 38 40 41 42 41 41 40 39 37 36 36 37 37 36
2 5 11 12 11 14 12 10 12 11 7 6 5 8 11 8 6 5 4 4 1 4 3 3 5 5 3 4 7 6 5 7 7 8 15 23 27 29 31 33 35 36 35 34 35 34 32 30 29 29 28 29 30 30 28 26 25 25 26 27 28 29 30 30 30 31 32 34 36 37 39 39 40 41 43 42 42 41 40 39 38 37 37 37 37 37
7 9 9 11 12 11 10 9 10 12 8 3 3 1 9 9 8 8 6 4 3 2 3 3 4 4 4 4 6 6 6 9 8 7 12 20 25 27 28 29 32 33 32 31 31 30 27 26 25 23 21 20 22 22 22 22 22 22 22 23 24 25 26 26 27 29 30 32 33 35 38 39 41 42 42 42 42 42 41 40 39 38 37 37 37 37
11 14 12 12 10 7 8 5 8 13 6 1 2 5 3 3 4 6 7 4 2 1 3 5 3 4 5 4 6 7 7 9 11 9 11 18 24 24 25 26 27 28 28 27 27 25 24 22 20 19 16 13 13 14 16 17 18 19 19 20 22 23 23 23 23 25 28 30 31 33 36 39 40 41 41 41 42 42 42 42 41 39 39 38 38 38
7 17 19 12 7 5 6 4 8 11 7 5 5 6 5 4 4 3 4 5 3 1 7 6 4 4 4 3 4 4 5 8 9 9 9 15 22 23 25 27 24 24 25 24 24 23 20 15 12 11 10 10 11 12 13 15 16 16 16 18 20 21 22 22 23 24 27 29 31 33 35 38 39 40 40 41 42 42 43 44 42 41 40 40 40 39
3 18 19 9 7 8 7 6 6 9 10 9 5 5 4 3 4 3 1 3 4 5 9 8 8 5 3 3 5 4 5 8 8 7 7 12 19 22 24 26 25 24 22 21 19 17 12 7 5 6 7 9 10 10 11 12 12 13 14 16 18 19 20 22 23 24 26 28 31 33 35 36 37 38 39 41 41 42 43 44 43 42 42 41 41 41
3 11 9 6 13 12 7 5 4 7 11 8 4 4 3 4 2 3 2 1 3 6 5 8 9 7 5 5 4 4 5 5 6 6 6 9 16 21 25 26 23 18 13 12 10 9 6 2 3 5 5 5 6 6 7 7 8 9 10 12 15 16 17 19 21 23 25 27 30 32 34 35 35 36 37 39 40 40 41 42 42 43 43 43 43 42
4 7 7 6 14 15 9 5 3 4 7 5 4 4 2 1 1 1 1 1 2 5 3 6 8 5 7 9 8 9 8 6 8 9 10 14 18 22 22 18 12 8 6 6 5 5 2 2 3 4 5 5 6 6 6 6 7 7 6 7 8 10 11 14 16 20 23 25 27 29 31 33 34 34 35 36 37 38 39 40 41 42 43 43 43 43
4 6 8 6 7 14 14 8 6 5 8 9 8 7 6 4 3 2 3 0 0 3 4 3 5 3 5 7 9 11 9 12 15 16 19 21 24 27 20 9 6 5 7 5 4 3 1 3 3 5 8 8 8 10 12 12 12 12 11 10 9 8 7 9 11 14 18 20 23 25 27 30 31 32 32 33 34 35 36 39 40 41 42 43 43 43
7 5 10 10 7 14 16 12 11 7 8 10 6 6 6 5 4 3 3 2 2 1 4 2 3 4 4 4 6 9 9 14 16 18 23 22 23 30 21 8 7 12 12 9 6 3 2 4 5 9 12 11 11 12 14 15 15 14 14 14 15 14 13 11 10 10 12 14 17 20 22 25 27 30 31 32 32 32 34 36 38 40 41 42 42 41
10 4 9 13 11 18 16 10 10 9 5 5 4 5 5 4 4 2 1 3 3 1 2 2 2 4 4 4 6 7 8 13 18 20 21 21 19 23 19 15 17 18 16 12 6 1 4 6 8 10 12 14 13 12 13 15 16 15 13 13 14 14 15 15 14 14 13 12 13 15 18 21 23 26 28 30 30 31 32 34 35 37 39 40 41 41
8 5 10 11 8 17 18 11 11 9 6 4 4 6 3 2 5 3 0 2 3 2 3 4 4 4 2 7 9 8 9 12 16 14 11 12 13 13 16 19 19 15 11 7 4 5 6 7 9 10 12 15 17 15 13 13 15 16 15 14 13 13 14 14 14 15 16 15 15 14 15 17 20 23 26 27 29 30 32 33 34 35 36 38 39 39
5 3 9 12 8 14 19 15 9 5 6 6 5 7 3 3 3 3 2 2 3 4 4 5 9 5 2 5 5 3 8 11 10 9 9 11 10 10 14 15 13 9 6 7 8 8 7 8 8 10 12 16 20 19 16 13 13 15 17 17 16 14 14 14 15 15 16 17 17 16 16 16 16 19 22 25 27 29 31 33 33 34 35 35 35 36
6 3 4 10 9 9 11 11 5 2 1 4 7 10 6 1 3 4 4 3 4 5 3 4 8 5 5 8 7 4 8 10 8 7 7 9 11 14 17 16 11 8 10 11 11 9 8 7 7 8 10 16 21 21 18 16 14 15 16 18 19 18 17 17 17 17 17 18 18 18 18 18 18 18 18 20 23 26 29 31 31 31 32 32 32 34
6 4 2 6 7 8 7 6 7 4 1 3 7 8 4 2 4 6 5 3 4 5 4 2 4 4 6 10 11 11 10 9 7 6 6 9 15 22 24 19 12 12 15 14 12 10 7 5 5 5 7 15 22 21 17 17 17 16 17 19 20 21 21 20 20 20 21 21 21 20 19 19 19 19 19 19 20 23 26 27 28 29 29 30 31 32
3 3 4 3 5 8 7 8 11 12 7 5 7 8 6 3 1 1 3 2 2 3 3 2 3 5 6 7 10 12 12 11 9 8 8 7 9 13 16 14 15 19 19 15 12 9 6 4 2 4 8 14 22 24 18 15 17 18 18 19 21 22 24 25 23 23 24 24 24 24 23 21 20 20 20 20 20 21 22 24 25 27 28 29 30 31
4 4 6 5 5 8 8 9 12 14 13 10 9 10 10 7 4 3 3 2 2 2 3 3 5 7 5 5 8 10 10 8 7 7 6 4 9 10 9 11 16 19 18 15 11 9 5 1 4 9 14 18 24 27 21 15 15 18 19 20 22 24 26 28 27 26 27 27 27 27 26 25 22 21 21 22 22 21 21 21 22 24 26 28 29 30
3 3 5 5 5 5 3 3 5 11 14 11 7 7 8 7 6 6 6 5 3 3 2 3 4 5 3 4 6 6 6 5 5 5 7 8 8 8 8 9 12 15 14 12 9 6 2 4 9 13 18 22 25 25 20 17 15 15 17 20 23 25 26 28 28 28 30 30 29 29 28 28 26 23 22 22 23 23 22 20 20 20 23 25 26 27
2 3 5 4 1 1 3 5 4 7 10 6 4 5 8 9 8 6 4 5 6 7 5 4 5 4 3 5 3 3 3 4 4 5 6 5 7 6 5 5 8 11 10 8 4 1 5 9 12 15 19 23 24 21 18 18 17 16 17 20 23 24 25 26 28 29 32 33 32 31 29 29 28 25 24 23 23 23 23 22 20 19 20 21 23 24
5 4 6 6 2 2 1 1 1 5 8 7 8 9 10 11 10 5 2 3 4 7 8 6 5 5 4 3 1 4 2 2 2 2 2 6 8 6 6 7 6 7 5 3 2 7 11 14 17 20 23 23 21 19 18 19 19 18 19 21 22 22 23 25 28 31 34 35 34 32 31 30 29 27 25 24 24 24 23 22 21 21 21 20 21 23
8 4 7 9 7 8 10 9 8 9 9 7 9 13 13 15 15 8 3 4 3 5 7 5 4 7 7 5 4 1 2 3 6 5 2 2 3 4 5 5 4 2 4 7 9 13 15 19 23 25 24 21 18 18 18 19 21 21 22 22 21 22 24 26 29 33 34 34 33 32 31 29 27 26 26 25 26 25 24 23 22 22 22 21 21 22
4 4 8 9 11 12 9 6 6 9 10 9 12 17 16 15 15 8 3 5 6 4 5 5 7 9 11 11 9 7 5 6 7 6 5 3 1 1 2 5 8 12 14 16 18 19 20 22 24 23 21 19 18 18 18 19 22 22 22 23 23 24 28 30 31 32 32 32 32 31 28 26 25 25 25 25 25 26 25 25 24 24 24 23 23 23
2 4 10 9 10 8 3 3 8 13 16 16 18 20 17 15 15 11 8 11 9 6 5 9 8 8 13 16 12 8 8 9 8 7 9 7 2 1 6 11 16 19 20 20 20 21 21 22 21 19 18 19 20 19 20 22 23 22 22 24 25 28 30 32 32 30 29 31 31 29 26 25 25 24 23 23 24 24 24 24 24 25 25 25 26 25
3 7 10 9 10 6 3 6 10 13 15 15 17 19 19 18 18 17 16 13 9 8 10 12 12 13 16 17 14 10 10 10 12 14 16 11 4 7 14 18 20 21 20 20 19 19 20 19 18 17 18 20 22 23 24 25 23 22 23 25 27 30 31 31 30 30 30 31 29 28 28 28 27 27 25 24 24 23 23 23 24 25 25 26 26 27
4 7 8 10 12 8 6 9 11 13 12 11 15 18 19 20 20 19 18 13 11 11 13 12 12 15 16 13 16 14 8 10 16 19 14 9 8 12 17 18 20 20 19 18 18 18 19 18 17 17 18 21 24 26 26 24 23 23 24 25 27 30 30 30 30 31 31 29 28 29 30 30 30 29 28 26 25 24 25 25 25 25 25 25 25 26
4 6 6 9 9 6 4 9 12 15 14 13 14 15 15 16 16 15 14 11 10 11 14 12 9 11 14 12 15 16 7 8 14 13 10 10 10 12 15 16 17 17 16 18 19 19 18 18 19 20 21 24 24 23 22 21 21 22 24 26 28 29 29 29 29 30 29 29 30 31 31 33 33 32 29 27 26 25 25 26 26 26 26 26 26 26
4 4 3 6 7 4 2 5 6 8 11 13 14 14 14 14 14 14 14 14 14 15 15 11 7 10 12 8 9 16 15 12 11 10 11 12 10 9 12 13 15 16 19 22 23 21 18 18 21 22 21 20 17 16 17 19 21 23 25 27 28 28 28 28 28 29 31 31 32 32 32 32 32 30 29 27 26 26 25 26 26 27 27 27 27 27
4 4 3 6 7 5 4 4 1 3 6 8 10 14 18 16 16 15 14 15 17 15 12 11 11 13 9 3 4 13 15 12 10 8 6 7 8 11 13 15 19 21 21 22 21 19 18 18 18 17 15 13 12 13 15 18 23 26 27 28 27 27 27 28 29 31 33 34 33 31 29 28 27 26 25 25 26 25 25 25 26 26 27 28 28 29
6 5 4 5 5 3 4 4 2 1 5 5 6 14 19 20 20 19 17 18 17 13 11 9 8 8 4 4 7 12 13 13 11 6 5 8 12 15 20 24 25 21 17 16 17 17 17 16 13 11 11 11 13 14 16 20 23 25 27 27 28 28 29 30 32 33 33 32 30 27 25 24 24 24 24 24 24 24 25 25 25 25 25 26 28 29
7 6 4 3 3 3 4 4 2 5 5 1 1 8 14 16 18 17 15 15 14 12 10 7 5 5 7 11 14 16 18 19 17 14 15 16 16 17 22 27 28 22 14 12 13 13 13 13 13 12 12 13 15 18 20 21 21 22 24 26 28 30 32 33 33 32 30 29 26 24 24 23 23 23 23 23 23 23 24 24 25 25 25 25 27 28
7 6 3 3 3 2 3 5 5 3 1 1 2 6 9 9 8 8 8 8 7 9 9 10 10 9 8 11 15 18 20 20 19 22 22 17 14 17 20 22 22 19 14 12 12 11 10 9 10 10 11 12 15 17 20 21 22 23 24 24 26 28 30 31 31 30 29 28 26 25 24 25 25 24 24 23 23 23 23 24 24 25 25 26 27 27
8 6 3 3 3 2 4 5 3 3 3 3 6 8 8 7 7 8 7 7 7 10 11 11 11 9 8 11 16 20 20 15 15 18 18 12 10 12 15 16 15 13 11 10 10 10 9 9 9 9 10 11 13 16 18 20 22 23 23 23 23 24 25 27 28 28 28 28 28 27 26 26 27 27 26 25 25 24 24 24 24 25 25 26 27 28
9 7 6 6 4 3 5 3 2 2 5 7 8 6 7 11 11 9 6 8 8 12 15 13 10 10 8 9 16 19 13 7 8 10 8 7 7 8 10 11 10 8 8 8 8 9 10 10 11 11 13 15 17 19 21 20 21 21 21 21 21 22 23 24 25 26 27 27 28 28 28 27 27 28 27 27 26 26 25 25 25 25 26 27 27 28
6 3 5 6 3 4 5 4 5 6 7 6 8 6 11 20 17 11 5 9 6 11 19 16 11 11 12 15 19 13 5 3 8 8 8 10 8 9 9 7 7 7 8 9 9 10 10 12 14 15 18 21 23 24 24 24 23 22 21 21 21 21 22 23 25 25 26 26 27 27 28 28 27 27 27 26 26 25 25 25 25 25 26 27 28 29
5 2 3 6 5 4 6 4 3 4 6 6 7 7 16 27 22 12 4 9 5 14 24 21 15 16 20 21 16 7 6 9 11 9 11 12 9 8 8 6 6 7 7 9 11 13 14 15 18 19 21 23 24 25 26 26 25 23 22 22 21 21 22 23 24 24 25 26 26 26 26 27 27 27 26 26 26 26 25 25 25 25 25 26 28 29
3 3 3 4 4 4 6 5 3 3 5 6 6 10 22 26 17 7 7 7 6 14 21 23 21 23 24 20 14 10 13 16 12 9 12 11 7 7 7 7 8 9 10 11 12 14 15 16 16 17 19 20 21 23 24 24 24 22 22 21 21 21 22 22 23 23 24 25 25 25 25 25 26 26 26 26 27 27 26 26 26 26 26 26 27 28
4 3 2 3 4 3 4 3 3 5 6 7 9 16 23 16 5 7 7 10 14 15 17 21 23 22 19 16 15 14 14 12 9 9 10 9 7 6 4 5 8 10 11 11 11 13 13 13 14 15 15 16 17 19 20 21 22 21 21 21 21 22 23 24 24 24 24 24 24 24 25 25 25 26 26 26 27 27 27 26 26 27 27 27 27 27
5 5 5 4 4 3 2 3 3 5 6 14 16 12 9 5 5 10 11 11 15 18 18 18 18 15 12 10 10 12 13 13 12 11 8 6 5 3 3 5 7 9 10 10 10 11 12 13 13 14 14 15 15 17 18 19 20 20 20 20 21 23 25 26 28 28 26 25 24 24 24 25 25 25 25 26 26 27 27 26 26 26 26 27 28 28
3 5 5 4 4 5 4 6 6 4 9 22 20 10 10 8 10 17 17 12 13 18 19 18 15 12 11 10 11 14 15 14 13 10 8 5 4 3 4 4 4 6 7 8 8 10 12 14 15 15 15 15 14 16 17 19 20 21 21 21 22 24 26 27 29 30 29 28 27 26 25 25 26 26 26 25 26 26 26 26 27 26 26 27 27 28
5 6 5 4 4 3 3 6 4 3 10 19 13 9 14 14 12 16 19 18 18 18 16 15 14 12 12 13 15 16 15 14 12 10 8 7 5 3 2 3 4 5 7 8 9 11 12 14 16 17 18 18 16 16 17 19 21 23 23 23 24 25 27 28 29 30 31 31 30 29 29 28 27 27 27 27 27 27 28 28 29 29 29 29 28 29
4 4 5 3 3 4 3 4 4 2 8 14 8 6 16 19 13 11 14 17 18 15 11 11 13 15 15 16 17 16 15 13 12 10 10 9 7 5 6 7 7 7 9 11 12 13 14 15 16 18 19 20 19 19 20 21 22 23 24 24 25 26 28 29 30 31 31 32 32 32 32 32 31 30 29 27 27 28 29 30 31 32 32 32 31 31
2 4 4 2 3 4 3 3 7 7 9 11 8 7 13 15 12 10 9 10 11 11 11 13 14 16 17 15 14 14 12 11 10 9 10 10 9 9 10 11 11 11 12 14 15 17 18 18 18 18 20 21 21 22 23 22 22 23 24 25 26 27 28 29 30 30 31 30 31 31 31 31 31 32 32 31 31 30 30 30 31 33 34 34 34 35
2 7 6 3 5 6 2 1 6 10 10 10 9 9 11 13 15 14 11 9 9 11 13 15 17 17 15 12 11 10 8 7 7 7 8 9 10 12 13 14 14 14 15 15 17 18 18 19 20 20 21 22 22 23 24 23 22 23 23 24 26 27 29 30 30 31 31 31 31 32 32 32 32 31 31 32 32 33 33 34 34 35 35 36 36 37
6 8 5 2 3 3 3 2 3 5 4 8 10 12 14 16 17 15 11 11 14 16 18 18 16 14 12 9 7 6 5 4 5 7 9 11 13 14 16 16 17 17 18 18 18 18 19 19 20 21 22 22 22 23 24 24 24 24 24 25 26 28 30 31 31 33 33 34 34 34 35 36 37 36 36 35 34 34 33 33 34 36 37 37 36 37
7 5 2 3 3 5 4 5 6 4 1 6 8 9 12 16 16 16 16 16 17 18 19 18 15 12 10 8 6 5 5 6 7 9 11 13 15 17 18 19 20 20 21 21 21 21 20 20 20 21 22 22 22 23 24 25 26 25 25 26 28 29 30 31 32 33 34 34 35 35 35 36 37 38 38 39 39 38 37 35 34 34 35 36 36 37
5 6 6 5 4 4 4 9 13 8 3 4 8 10 13 17 18 19 20 20 19 17 15 14 13 10 8 6 5 6 7 8 10 12 14 15 16 18 19 20 21 22 22 23 24 24 23 22 22 22 22 22 22 23 25 26 26 26 26 27 28 29 31 32 33 35 35 35 36 36 36 37 37 38 38 38 39 40 41 41 39 37 36 36 36 37
Wind_Direction
164 157 203 202 193 193 204 218 229 243 244 221 196 206 210 219 244 233 254 258 200 204 219 216 226 231 234 247 252 252 256 256 251 246 240 236 236 235 234 234 236 239 244 249 252 253 253 256 260 263 266 268 266 266 265 264 263 262 261 260 261 262 263 263 262 262 260 259 259 258 257 259 260 258 256 257 258 260 265 267 266 265 265 263 259 257
166 187 225 212 197 186 194 218 232 246 251 242 205 222 228 218 244 247 256 297 267 229 236 226 232 240 240 245 250 246 243 244 240 240 243 242 242 241 238 238 241 244 248 251 251 250 251 253 256 259 260 260 262 263 262 264 265 266 265 264 265 266 264 264 264 264 263 264 264 264 265 268 267 263 261 262 263 265 267 268 267 267 267 266 263 258
171 209 220 208 196 188 192 207 218 233 240 244 233 240 263 226 268 285 276 326 321 241 258 262 247 248 247 249 254 247 232 239 244 245 247 244 243 243 244 246 247 247 248 249 249 251 253 254 256 258 258 257 259 263 264 265 266 267 267 267 267 267 266 266 265 264 264 266 268 269 269 269 267 265 265 265 265 265 266 266 266 266 266 265 264 260
194 217 205 186 180 181 189 197 202 224 231 234 230 228 251 238 252 273 285 353 339 280 309 323 291 266 260 265 267 254 241 245 255 257 258 254 251 252 254 255 253 251 250 251 252 254 256 257 257 258 260 259 258 261 263 264 264 265 266 268 268 267 268 267 266 265 265 266 267 267 267 266 264 263 263 262 262 262 262 263 264 264 264 263 263 261
222 194 150 153 170 176 181 188 193 211 224 226 224 225 236 226 208 222 257 3 341 317 319 323 303 275 247 252 264 264 255 253 257 258 259 257 255 257 259 259 259 258 257 258 258 260 259 258 259 262 263 263 260 261 264 265 266 267 267 268 269 269 269 267 266 266 265 264 262 261 260 258 257 256 255 255 257 258 260 262 265 265 264 263 263 262
233 163 145 149 163 174 178 186 190 198 218 225 220 217 220 212 198 170 103 59 3 305 266 245 275 276 241 233 239 252 265 263 260 258 259 259 259 258 258 258 258 258 259 261 262 263 262 261 263 265 265 263 262 263 266 267 268 270 271 271 270 269 268 267 266 266 265 262 260 258 256 255 255 255 256 258 261 263 265 269 271 269 266 265 266 265
222 175 158 152 159 168 181 196 189 184 202 228 227 208 203 199 196 188 153 130 164 250 239 195 232 275 306 262 242 239 261 266 254 249 252 257 261 261 260 260 260 260 260 260 262 263 264 265 267 268 267 265 265 267 267 267 267 269 271 270 269 269 267 266 265 264 263 262 260 259 258 259 259 260 263 265 267 268 270 272 273 270 268 267 267 267
149 177 176 157 160 164 181 197 183 174 188 232 344 194 193 195 195 191 174 166 197 258 292 260 225 263 284 262 251 244 265 274 262 249 252 256 259 261 262 263 262 261 259 258 261 264 267 269 270 271 269 267 267 269 266 263 264 267 268 269 269 269 268 266 265 264 263 263 262 261 260 260 261 263 266 268 267 268 270 271 272 271 270 268 268 268
156 175 177 164 161 166 182 176 159 164 162 169 44 61 127 171 179 167 159 184 222 26 280 264 211 245 263 250 247 238 241 263 265 256 251 255 259 260 263 264 260 254 251 255 260 265 272 274 275 275 271 268 272 273 268 265 267 269 268 265 264 265 266 267 267 265 264 264 264 263 262 262 262 264 266 266 266 267 268 269 270 270 269 269 269 268
166 178 175 164 155 180 180 127 138 150 135 160 145 82 75 66 65 104 148 163 139 183 235 223 180 231 265 229 217 223 219 233 252 257 248 254 261 264 265 261 252 243 246 254 261 267 272 273 273 275 273 278 285 283 278 275 272 269 264 261 262 263 267 270 269 267 265 265 265 263 263 264 265 265 264 264 264 265 265 266 267 267 267 268 268 268
162 174 173 165 177 185 160 128 125 130 133 148 126 62 33 27 69 69 42 123 136 223 232 202 184 207 260 236 189 188 219 213 226 256 264 263 262 262 262 256 244 237 246 259 263 263 261 262 283 294 295 294 292 288 282 280 277 271 266 264 264 265 267 270 270 268 267 266 265 265 265 266 267 267 266 265 265 265 264 265 266 267 267 268 268 269
121 163 171 195 196 176 118 104 113 129 146 139 89 60 20 352 40 54 8 95 184 229 219 181 184 191 226 249 213 221 249 214 206 237 260 265 260 258 257 253 242 236 255 271 255 241 243 275 342 337 330 320 315 311 300 297 296 288 280 271 268 268 269 269 268 267 266 265 265 265 266 266 267 267 267 266 266 266 265 266 267 267 267 268 268 269
158 176 173 186 194 175 132 107 110 138 163 150 120 126 115 257 281 58 210 195 212 244 227 172 181 192 228 245 243 252 273 270 259 264 268 269 268 266 260 249 234 233 283 291 233 231 266 22 12 9 22 20 10 10 15 11 359 347 329 305 291 286 279 273 269 266 265 264 264 265 266 266 266 266 266 267 268 268 267 267 267 267 267 268 269 270
155 194 173 152 182 176 159 151 165 173 177 178 170 166 173 189 190 177 191 99 195 264 286 197 177 201 252 250 230 229 245 256 260 264 271 275 268 263 260 236 223 269 302 290 242 259 4 73 46 49 61 55 49 50 48 41 35 32 28 21 11 359 333 304 287 277 272 268 267 267 267 267 266 266 266 267 269 270 270 269 268 268 268 269 270 271
174 196 174 169 172 175 178 182 178 157 166 186 172 160 177 179 183 187 179 185 177 255 298 243 177 193 223 239 203 199 227 250 262 271 279 283 261 251 258 266 281 296 299 281 263 273 71 98 86 76 71 61 53 48 39 35 33 31 30 29 27 23 18 8 350 325 302 287 278 272 270 269 268 268 268 269 270 271 271 270 269 269 269 269 270 271
192 210 172 176 169 170 184 189 158 126 146 189 136 149 200 189 171 183 178 167 142 99 278 205 213 217 217 263 248 233 261 275 284 285 284 290 270 252 263 277 282 288 284 268 255 171 107 105 95 78 62 49 39 29 20 20 22 23 21 20 20 18 15 14 11 4 353 334 313 294 282 276 272 271 271 271 272 273 272 272 271 271 270 270 270 271
193 199 177 173 165 178 183 175 165 159 159 166 154 174 201 113 127 128 241 120 109 225 225 186 239 269 273 281 268 256 267 276 286 281 257 264 267 248 252 262 266 271 262 236 178 123 109 99 88 66 46 34 25 18 10 6 10 16 17 14 12 11 9 6 4 3 1 356 349 336 316 297 284 277 275 275 276 276 276 275 273 273 272 271 270 270
171 170 183 171 172 191 180 160 168 186 150 146 174 172 125 49 97 131 183 141 143 230 237 202 229 233 182 259 282 258 242 241 258 269 239 237 249 246 252 259 258 245 202 155 139 127 113 98 78 56 38 23 13 7 1 354 351 357 6 8 4 359 359 359 357 356 355 353 350 347 341 331 313 296 286 281 278 277 277 276 275 275 274 272 271 269
164 137 209 187 177 175 158 148 167 273 128 142 164 164 147 140 192 169 174 171 175 214 240 214 225 215 191 233 258 246 228 217 217 245 246 239 241 242 250 256 249 207 165 149 145 135 119 101 74 53 33 14 5 359 353 346 337 333 341 352 356 352 346 344 344 346 348 348 347 343 338 335 330 323 310 296 286 280 276 275 276 276 276 275 274 271
170 153 216 200 176 154 150 173 182 182 5 77 137 170 190 206 193 178 171 178 180 195 219 207 208 223 216 223 233 232 228 226 229 243 249 243 239 240 243 241 219 176 161 158 154 144 131 114 82 48 13 359 358 357 350 340 333 326 324 330 340 343 339 333 332 334 336 338 341 341 337 331 326 325 322 313 301 290 284 280 277 276 275 275 275 273
156 186 196 165 160 165 177 202 188 175 167 145 156 183 202 194 154 138 159 161 143 161 213 235 234 251 242 215 217 224 226 231 241 257 269 256 226 225 228 209 175 162 162 163 162 160 152 132 83 352 334 334 341 345 345 336 326 322 321 322 327 333 331 325 323 327 329 329 330 332 334 332 325 320 318 317 311 301 295 291 284 279 277 276 275 275
166 193 183 160 178 187 196 208 194 179 172 174 183 184 187 180 139 139 190 179 152 170 178 197 239 255 246 203 205 217 224 226 236 250 243 176 132 126 135 147 153 160 166 167 169 171 171 161 329 325 323 322 326 331 336 334 321 312 314 319 323 326 323 317 315 320 324 324 324 324 326 329 327 320 314 314 313 307 299 292 289 287 283 281 280 278
132 130 150 155 181 192 225 227 168 175 183 190 202 187 184 185 164 174 194 176 178 213 169 163 236 254 239 203 196 200 207 198 193 204 182 151 118 99 104 131 159 169 169 171 171 168 200 312 319 316 316 318 320 324 330 331 323 311 308 312 316 318 316 312 312 315 319 320 320 319 319 322 325 322 314 311 310 310 304 293 287 287 286 286 286 283
85 113 145 140 126 45 351 8 72 166 183 191 228 205 189 193 190 188 189 169 180 200 187 190 235 259 254 233 202 136 178 195 165 158 148 97 55 61 89 111 156 167 160 157 156 33 334 322 312 305 309 314 317 321 325 325 323 315 308 309 312 313 310 309 310 313 316 317 317 316 316 317 319 319 315 311 307 307 308 302 291 284 285 288 289 288
176 174 155 145 142 135 140 87 124 180 188 194 206 201 194 191 181 160 136 154 182 197 187 188 228 255 260 255 328 71 118 244 241 166 100 31 30 61 82 72 109 144 131 99 4 336 325 313 304 303 308 312 315 318 318 319 319 314 308 308 310 308 305 306 308 310 312 313 313 314 315 316 317 316 314 311 307 304 304 304 299 292 287 286 288 289
175 197 174 169 177 183 186 190 183 181 189 197 193 189 192 188 177 169 164 168 187 201 183 167 208 247 263 282 301 292 157 249 272 259 256 346 12 72 86 63 56 35 343 326 315 310 303 299 300 304 308 310 311 312 312 312 315 313 308 307 308 306 304 304 306 307 308 310 312 314 317 320 320 318 316 314 311 306 301 299 299 297 293 289 286 284
163 211 194 194 198 197 198 191 154 150 168 182 184 186 192 190 182 168 135 174 192 186 187 205 211 234 259 265 259 251 240 255 259 244 230 222 199 127 23 343 328 322 315 306 302 298 293 293 298 302 306 307 307 307 306 307 311 311 307 305 306 305 304 304 305 305 306 310 313 317 321 323 321 319 318 316 313 310 305 300 296 294 294 292 286 282
99 211 202 210 214 205 179 142 142 153 175 186 184 184 185 184 179 178 191 199 189 166 210 232 210 215 250 252 242 231 232 250 261 262 268 265 201 245 318 318 313 309 303 295 293 290 289 292 297 301 304 303 303 303 304 306 309 308 303 302 302 303 304 306 306 307 308 310 314 318 320 320 318 314 311 308 306 305 303 300 295 291 289 288 287 285
124 205 202 204 218 212 137 157 162 166 184 188 182 182 182 180 179 189 204 201 170 173 215 216 194 207 236 247 248 231 201 219 252 263 271 282 323 327 318 313 306 300 291 285 285 285 289 294 298 299 297 297 301 305 307 307 306 302 299 299 300 303 306 307 307 308 310 310 313 316 317 317 316 312 306 301 299 298 295 293 291 290 287 286 286 287
169 194 183 187 212 218 173 171 170 173 183 184 184 186 182 182 185 192 202 196 174 195 220 210 195 215 231 240 252 249 197 199 241 255 266 294 323 314 307 300 292 286 283 285 287 288 294 299 295 290 290 296 303 306 306 304 300 298 297 299 303 306 307 306 306 308 310 311 312 313 314 316 316 313 307 302 298 295 291 288 286 286 286 286 285 284
199 185 156 163 198 229 197 184 182 181 184 186 190 189 180 181 187 193 202 196 184 209 225 214 204 231 242 240 253 267 259 218 241 261 282 302 306 295 286 279 277 280 284 289 292 294 296 293 288 289 296 302 305 303 299 295 295 296 297 300 304 306 305 305 306 308 310 310 309 310 312 314 315 313 310 305 300 295 290 287 285 284 284 284 284 282
187 173 122 142 184 227 213 193 192 177 179 190 191 181 175 179 186 196 204 199 194 204 214 210 209 234 242 234 251 272 271 254 257 275 286 291 287 268 263 266 274 284 291 294 296 295 291 287 289 296 301 301 297 292 290 291 294 297 299 301 304 304 304 304 306 308 308 308 309 310 311 312 312 311 309 306 303 298 294 290 287 286 284 282 282 281
150 152 136 151 183 206 192 185 157 113 161 196 197 181 179 186 192 199 210 211 204 199 198 205 216 227 228 172 213 258 264 266 278 281 268 264 251 249 261 272 282 289 294 296 296 293 292 292 295 298 297 293 287 283 286 293 299 302 304 304 304 303 303 304 305 306 306 308 310 310 309 307 305 304 303 304 304 302 301 299 295 292 289 286 283 281
138 134 143 159 166 179 171 154 108 160 195 207 194 184 185 191 194 198 207 213 210 204 205 214 223 229 219 179 214 244 257 265 273 268 242 247 255 268 280 286 291 296 297 294 291 291 295 296 293 291 287 288 291 291 294 299 301 303 303 303 303 303 304 304 304 305 305 307 309 309 306 303 300 299 298 299 301 302 303 304 303 300 295 291 288 285
143 130 124 134 133 139 138 127 154 224 226 245 182 199 200 200 198 200 212 217 211 206 211 223 228 215 207 213 224 237 249 258 266 270 268 266 266 274 282 286 290 294 294 292 290 291 294 291 288 289 289 293 299 302 305 305 302 300 298 299 301 302 303 304 304 305 306 307 308 307 306 305 303 302 300 298 298 299 300 301 302 302 300 297 294 291
144 140 126 120 128 117 127 166 199 233 316 13 277 235 220 208 189 192 228 244 212 189 196 211 220 216 210 221 228 235 248 261 270 271 271 273 273 272 274 275 276 277 280 286 290 294 299 299 301 304 306 307 306 306 308 308 306 305 303 302 303 302 303 303 303 304 305 306 308 310 310 309 308 308 307 305 302 300 299 299 298 298 298 297 296 295
155 149 140 157 174 145 150 192 225 350 350 236 233 233 211 190 170 174 220 250 210 187 196 206 220 227 222 227 236 242 251 264 275 271 265 266 266 257 252 252 253 259 267 270 276 287 299 310 318 321 319 318 314 312 310 309 309 309 308 308 307 305 302 300 300 300 301 304 308 312 315 314 313 313 313 313 311 308 307 305 303 303 302 299 297 296
169 172 173 182 191 126 133 183 203 227 243 221 217 225 180 167 166 159 194 245 227 198 200 202 212 223 216 220 233 238 240 250 266 259 233 222 225 205 204 221 229 239 250 250 257 269 280 294 305 313 315 314 312 310 309 309 310 309 309 309 308 305 302 300 300 300 301 303 306 311 316 318 318 318 317 318 318 318 318 317 315 314 313 309 305 301
154 159 155 172 184 135 148 181 182 208 243 215 198 208 163 158 153 131 170 244 234 184 195 202 208 213 212 219 224 218 178 204 255 244 193 188 197 183 182 203 216 228 242 248 256 265 276 288 294 299 302 301 300 300 300 303 306 307 308 307 305 304 303 303 303 304 303 304 306 309 313 315 317 319 320 320 322 324 326 327 326 323 322 319 316 311
141 137 152 178 196 173 174 199 200 224 245 209 202 203 160 149 137 117 185 250 222 178 191 195 196 207 215 219 217 183 159 218 247 239 204 197 197 184 185 205 221 236 250 258 266 272 278 282 282 282 283 284 287 291 292 295 299 302 304 304 301 301 302 301 303 304 305 305 305 305 307 309 311 313 316 318 320 324 328 331 331 330 329 327 324 320
148 175 180 174 180 174 177 206 252 265 235 216 211 178 151 139 131 148 208 225 187 183 191 189 195 211 217 215 208 200 212 226 235 215 195 192 190 185 185 196 211 229 244 253 262 267 269 273 274 274 274 274 277 281 283 287 292 296 299 300 300 300 300 300 300 301 302 303 302 302 303 303 305 307 309 312 314 316 321 325 327 328 329 329 328 326
163 173 184 159 160 165 167 191 260 276 232 185 161 161 154 142 157 213 185 149 148 162 179 187 197 210 214 211 214 213 208 201 188 175 175 180 189 192 185 187 198 214 228 238 252 262 268 274 275 274 274 274 273 275 276 279 283 289 294 298 300 301 300 301 302 301 301 301 300 300 300 300 302 303 304 307 308 309 312 316 318 321 323 324 326 327
166 165 189 192 170 143 123 163 211 266 212 150 135 149 172 183 202 178 153 146 154 155 161 174 182 186 183 178 183 185 177 169 170 172 176 190 199 183 171 180 186 201 217 229 248 266 276 283 284 281 281 281 280 281 280 279 282 285 290 295 299 301 301 302 302 302 303 303 303 303 302 302 302 302 302 303 304 305 307 310 312 314 316 319 321 323
189 178 187 204 178 151 166 191 208 254 180 154 147 169 205 202 177 164 157 158 162 157 157 163 166 175 189 191 183 179 178 176 179 183 184 188 188 176 182 195 204 223 239 250 262 272 281 290 293 292 291 290 289 287 286 287 288 288 290 295 299 300 300 300 299 300 302 305 307 307 307 307 306 306 306 305 303 303 305 308 310 311 313 316 318 320
215 197 175 186 196 180 189 200 214 253 185 175 175 190 180 164 155 164 166 163 163 165 168 173 180 191 204 207 197 189 187 188 191 198 202 200 202 214 259 295 291 284 290 290 286 284 285 288 291 292 293 295 297 294 292 292 292 294 297 300 301 301 300 299 300 301 302 305 309 310 311 311 310 309 308 308 307 307 307 308 310 311 312 314 316 317
224 182 149 151 215 255 263 197 162 131 173 182 194 187 167 158 150 158 165 163 166 174 184 194 201 200 196 196 194 190 193 199 203 214 223 225 233 257 290 305 307 306 304 299 296 294 289 286 286 288 291 295 299 301 300 299 300 302 303 304 304 303 302 301 302 304 305 307 310 311 312 311 310 310 310 309 309 309 308 309 309 310 311 313 314 315
251 176 159 149 180 208 243 192 167 170 180 181 180 171 169 173 179 184 184 181 184 191 195 195 194 188 181 184 190 190 196 206 212 223 235 246 258 270 286 299 303 302 299 297 298 297 295 294 294 292 292 295 300 303 304 305 306 306 305 307 307 305 304 304 305 306 307 308 309 309 309 308 307 307 309 310 311 310 309 309 309 309 309 311 313 314
189 174 182 193 180 180 216 225 173 178 192 198 195 193 194 201 209 213 220 218 200 186 178 175 176 176 175 178 186 190 195 210 224 237 249 259 270 277 283 290 294 296 298 298 297 297 299 300 299 296 295 296 300 303 305 307 309 308 307 308 308 306 306 307 309 309 308 309 309 309 309 310 310 310 309 309 309 309 309 309 310 309 308 310 312 313
139 164 177 163 178 212 285 310 120 127 186 214 211 207 206 205 204 204 202 195 184 175 169 166 168 172 173 173 183 191 195 215 240 257 263 268 275 279 282 286 290 294 297 299 300 303 304 303 301 299 297 297 299 301 303 305 309 311 312 311 309 308 308 309 310 311 311 312 313 312 313 313 313 314 314 312 310 308 307 306 307 306 305 306 309 310
133 165 165 114 186 231 244 211 175 132 170 227 211 199 194 192 190 183 172 168 168 167 167 166 163 163 166 173 191 209 221 243 260 268 271 275 280 283 285 288 291 293 297 301 304 306 306 306 304 302 301 301 301 301 302 304 307 311 313 310 308 308 309 309 309 309 309 310 311 310 310 310 310 311 312 312 311 309 306 304 303 303 302 302 303 305
174 188 173 156 191 224 211 192 185 169 138 176 175 166 168 174 173 164 157 156 158 157 160 163 160 161 171 186 215 241 255 268 272 274 277 280 282 285 287 289 291 294 298 301 304 306 307 307 305 303 303 304 304 304 303 304 307 310 309 307 306 307 308 308 308 307 308 309 309 310 310 309 308 308 309 308 309 309 307 305 302 301 302 302 303 303